Regional Weather Roundup
Issued by NWS

Current Version | Previous Version | Text Only | Print | Product List | Glossary On
Versions: 1 2 3 4 5 6 7 8 9 10 11 12 13 14 15 16 17 18 19 20 21 22 23 24 25 26 27 28 29 30 31 32 33 34 35 36 37 38 39 40 41 42 43 44 45 46 47 48 49 50
000
ASUS45 KCYS 281310
RWRWY

WYOMING REGIONAL WEATHER ROUNDUP
NATIONAL WEATHER SERVICE CHEYENNE WY
700 AM MDT FRI APR 28 2017

NOTE:  "FAIR" INDICATES FEW OR NO CLOUDS BELOW 12,000 FEET
WITH NO SIGNIFICANT WEATHER AND/OR OBSTRUCTIONS TO VISIBILITY.

WYZ001-281400-
YELLOWSTONE NATIONAL PARK

CITY           SKY/WX    TMP DP  RH WIND       PRES   REMARKS
LK YELLOWSTONE   N/A     23  19  85 VRB3      29.80R
W YELLOWSTONE  NOT AVBL

$$
WYZ002>013-054>058-071-098>099-281400-
NORTHERN WYOMING

CITY           SKY/WX    TMP DP  RH WIND       PRES   REMARKS
JACKSON          N/A    N/A N/A N/A CALM        N/A
CODY           LGT SNOW  33  31  92 N21G28    29.80R FOG     WCI  21
GREYBULL       CLOUDY    40  32  73 NW24      29.73R WCI  29
WORLAND        CLOUDY    38  34  85 N10G17    29.74R WCI  31
SHERIDAN       LGT SNOW  34  31  88 W17       29.84R FOG     WCI  23
BUFFALO        LGT SNOW  32  29  88 NW18      29.81R FOG     WCI  20
GILLETTE       HVY SNOW  32  32 100 N9        29.78R WCI  24
HULETT         CLOUDY    34  32  93 E15       29.81R WCI  24
NEWCASTLE      PTSUNNY   34  34 100 CALM      29.76R

$$
WYZ014>020-022>026-101>103-281400-
CENTRAL WYOMING

CITY           SKY/WX    TMP DP  RH WIND       PRES   REMARKS
BIG PINEY      CLOUDY    30  19  63 NW13      29.70F WCI  20
PINEDALE       CLOUDY    28  23  80 NW14      29.71S WCI  17
DUBOIS         CLOUDY    30  19  64 W12       29.69S WCI  21
LANDER         LGT SNOW  32  31  96 NW8       29.70S FOG     WCI  25
RIVERTON       LGT SNOW  32  31  96 N14       29.72R VSB 3/4 WCI  22
CASPER         LGT SNOW  31  30  96 N14       29.70R VSB 1   WCI  21
DOUGLAS        LGT SNOW  32  30  92 NE7       29.70R VSB 1   WCI  26

$$
WYZ021-027>030-104>119-281400-
SOUTHERN WYOMING

CITY           SKY/WX    TMP DP  RH WIND       PRES   REMARKS
EVANSTON       CLOUDY    21  17  84 SW8       29.79S WCI  11
ROCK SPRINGS   LGT SNOW  26  21  81 SW20      29.73R WCI  12
DIXON            N/A     30  22  71 SW7       29.76S WCI  23
RAWLINS        LGT SNOW  28  24  85 W15G23    29.67R FOG     WCI  16
SARATOGA       CLOUDY    30  21  69 SW13      29.69S WCI  20
LARAMIE        FAIR      25  19  78 SW13      29.63R WCI  14
CHEYENNE       FAIR      30  23  75 W7        29.63R WCI  23
TORRINGTON     SNOW      33  32  96 E10       29.66R VSB 1/2 WCI  25
PINE BLUFFS    FAIR      32  30  93 W8        29.65R WCI  25

$$



USA.gov is the U.S. government's official web portal to all federal, state and local government web resources and services.